CW4279 Weather Reports


Display with metric or nautical units.
time (UTC)temp
F
wind
direction
speed
MPH
gust
MPH
rain 1hr
in
rain 24hr
in
rain mn
in
humidity
%
barometer
mb
20260509143703 51 120 1.0 5.0 0.00 0.22 0.22 72 1003.8
20260509143200 51 80 3.0 3.0 0.00 0.22 0.22 70 1003.6
20260509142655 51 103 1.0 3.0 0.00 0.22 0.22 75 1003.7
20260509142152 51 24 1.0 3.0 0.00 0.22 0.22 79 1003.7
20260509141648 50 75 2.0 5.0 0.00 0.22 0.22 77 1003.9
20260509141144 48 102 2.0 5.0 0.00 0.22 0.22 83 1003.7
20260509140641 48 69 3.0 3.0 0.00 0.22 0.22 91 1003.5
20260509140139 47 56 1.0 7.0 0.00 0.22 0.22 93 1003.4
20260509135636 46 89 2.0 6.0 0.00 0.22 0.22 95 1003.2
20260509135135 46 357 3.0 7.0 0.00 0.22 0.22 96 1003.3
20260509134631 47 113 2.0 3.0 0.00 0.22 0.22 98 1003.2
20260509134128 46 121 1.0 3.0 0.00 0.22 0.22 98 1003.4
20260509133625 46 326 3.0 6.0 0.00 0.22 0.22 99 1003.4
20260509133123 46 168 2.0 5.0 0.00 0.22 0.22 99 1003.0
20260509132621 46 71 2.0 5.0 0.00 0.22 0.22 99 1003.2
20260509132119 46 71 0.0 2.0 0.00 0.22 0.22 99 1003.2
20260509131614 46 165 1.0 2.0 0.00 0.22 0.22 99 1003.2
20260509131112 46 72 1.0 2.0 0.00 0.22 0.22 99 1003.2
20260509130607 46 81 1.0 2.0 0.00 0.22 0.22 99 1003.1
20260509130104 45 118 1.0 2.0 0.00 0.22 0.22 99 1002.9
20260509125601 46 193 1.0 1.0 0.00 0.22 0.22 99 1002.9
20260509125057 45 95 1.0 2.0 0.00 0.22 0.22 99 1002.9
20260509124554 45 148 0.0 2.0 0.00 0.22 0.22 99 1002.9
20260509124051 45 90 0.0 2.0 0.00 0.22 0.22 99 1002.7
20260509123549 45 87 1.0 2.0 0.00 0.22 0.22 99 1002.5
20260509123045 45 134 1.0 2.0 0.00 0.22 0.22 99 1002.4
20260509122541 45 92 0.0 1.0 0.00 0.22 0.22 99 1002.4
20260509122039 45 145 1.0 1.0 0.00 0.22 0.22 99 1002.3
20260509121535 45 127 1.0 1.0 0.00 0.22 0.22 99 1002.4
20260509121033 44 87 1.0 2.0 0.00 0.22 0.22 99 1002.3
20260509120531 44 133 0.0 1.0 0.00 0.22 0.22 99 1002.1
20260509120029 44 133 0.0 1.0 0.00 0.22 0.22 99 1002.1
20260509115525 44 133 0.0 1.0 0.00 0.22 0.22 99 1002.2
20260509115023 43 133 0.0 0.0 0.00 0.22 0.22 99 1002.2
20260509114521 43 133 0.0 0.0 0.00 0.22 0.22 99 1001.9
20260509114020 43 134 0.0 0.0 0.00 0.22 0.22 99 1002.1
20260509113518 43 134 0.0 1.0 0.00 0.22 0.22 99 1001.7
20260509113016 44 134 0.0 0.0 0.00 0.22 0.22 99 1001.5
20260509112511 44 134 0.0 0.0 0.00 0.22 0.22 99 1001.5
20260509112008 44 134 0.0 0.0 0.00 0.22 0.22 99 1001.3
20260509111506 44 135 0.0 0.0 0.00 0.22 0.22 99 1001.5
20260509111003 44 135 0.0 1.0 0.07 0.22 0.22 99 1001.3
20260509110459 44 135 0.0 0.0 0.07 0.22 0.22 99 1001.3
20260509105956 44 135 0.0 1.0 0.00 0.21 0.21 99 1001.1
20260509105455 44 130 0.0 0.0 0.00 0.21 0.21 99 1001.1
20260509104952 44 130 0.0 0.0 0.00 0.21 0.21 99 1000.9
20260509104449 44 113 0.0 0.0 0.00 0.21 0.21 99 1000.7
20260509103946 44 113 0.0 1.0 0.00 0.21 0.21 99 1000.4
20260509103443 44 130 0.0 1.0 0.00 0.21 0.21 99 1000.8
20260509102941 44 126 0.0 0.0 0.00 0.21 0.21 99 1000.7
20260509102439 44 132 0.0 0.0 0.00 0.21 0.21 99 1000.6
20260509101934 44 132 0.0 0.0 0.00 0.21 0.21 99 1000.3
20260509101431 44 132 0.0 0.0 0.00 0.21 0.21 99 1000.3
20260509100929 44 132 0.0 0.0 0.00 0.21 0.21 99 1000.2
20260509100426 44 149 0.0 0.0 0.05 0.21 0.21 99 1000.3
20260509095922 44 139 0.0 0.0 0.17 0.21 0.21 99 1000.6
20260509095419 44 139 0.0 1.0 0.12 0.19 0.19 99 1000.4
20260509094916 45 139 0.0 1.0 0.14 0.18 0.18 99 1000.4
20260509094413 45 130 0.0 1.0 0.12 0.17 0.17 98 1000.3
20260509093911 45 93 0.0 2.0 0.17 0.16 0.16 98 1000.6
20260509093408 45 87 0.0 1.0 0.12 0.15 0.15 98 1000.9
20260509092906 45 86 0.0 2.0 0.07 0.13 0.13 98 1000.9
20260509092403 45 87 0.0 1.0 0.19 0.13 0.13 97 1000.8
20260509091902 45 82 1.0 3.0 0.17 0.12 0.12 97 1000.5
20260509091358 45 87 0.0 2.0 0.17 0.10 0.10 97 1000.7
20260509090855 45 40 3.0 3.0 0.24 0.09 0.09 96 1000.7
20260509090353 46 58 2.0 3.0 0.26 0.07 0.07 95 1000.7
20260509085850 46 81 1.0 5.0 0.19 0.05 0.05 94 1000.6
20260509085347 46 44 1.0 2.0 0.05 0.03 0.03 93 1001.1
20260509084843 47 76 0.0 3.0 0.07 0.02 0.02 91 1000.8
20260509084340 47 88 1.0 3.0 0.12 0.02 0.02 88 1000.7
20260509083838 48 77 2.0 2.0 0.05 0.01 0.01 85 1000.7
20260509083335 49 85 2.0 2.0 0.00 0.00 0.00 82 1000.6
20260509082831 50 69 3.0 3.0 0.00 0.00 0.00 77 1000.4
20260509082328 51 62 2.0 5.0 0.00 0.00 0.00 70 1000.4
20260509081826 52 17 2.0 7.0 0.00 0.00 0.00 65 1000.3
20260509081322 52 112 0.0 3.0 0.00 0.00 0.00 64 1000.1
20260509080821 51 65 3.0 5.0 0.00 0.00 0.00 61 1000.2
20260509080318 51 95 2.0 6.0 0.00 0.00 0.00 56 999.9
20260509075816 51 82 2.0 3.0 0.00 0.00 0.00 56 1000.2
20260509075313 50 85 1.0 2.0 0.00 0.00 0.00 55 999.9
20260509074810 51 107 0.0 1.0 0.00 0.00 0.00 51 1000.0
20260509074308 50 114 0.0 1.0 0.00 0.00 0.00 52 1000.0
20260509073804 50 109 0.0 0.0 0.00 0.00 0.00 53 999.8
20260509073300 50 109 0.0 0.0 0.00 0.00 0.00 55 1000.0
20260509072757 51 109 0.0 1.0 0.00 0.00 0.00 53 1000.0
20260509072253 51 105 1.0 2.0 0.00 0.00 0.00 51 1000.0
20260509071750 50 118 0.0 1.0 0.00 0.00 0.00 50 1000.0
20260509071247 50 138 0.0 0.0 0.00 0.00 0.00 52 1000.0
20260509070744 50 128 0.0 1.0 0.00 0.00 0.00 52 1000.3
20260509070241 49 121 0.0 2.0 0.00 0.00 0.00 57 1000.3
20260509065737 48 107 0.0 1.0 0.00 0.00 0.00 61 1000.0
20260509065233 48 124 0.0 1.0 0.00 0.00 0.00 55 1000.3
20260509064730 49 145 0.0 1.0 0.00 0.00 0.00 62 1000.3
20260509064228 50 121 1.0 2.0 0.00 0.00 0.00 56 1000.0
20260509063725 50 122 0.0 0.0 0.00 0.00 0.00 49 999.9
20260509063221 49 122 0.0 0.0 0.00 0.00 0.00 47 999.9
20260509062718 49 122 0.0 0.0 0.00 0.00 0.00 47 999.9
20260509062215 49 122 0.0 0.0 0.00 0.00 0.00 48 999.6
20260509061712 48 122 0.0 0.0 0.00 0.00 0.00 50 999.7
20260509061210 47 122 0.0 0.0 0.00 0.00 0.00 51 999.8
20260509060707 47 122 0.0 0.0 0.00 0.00 0.00 52 999.8
20260509060203 47 122 0.0 0.0 0.00 0.00 0.00 53 999.9
20260509055659 48 122 0.0 0.0 0.00 0.00 0.00 53 1000.0
20260509055155 50 130 0.0 1.0 0.00 0.00 0.00 49 1000.0
20260509054652 50 122 0.0 0.0 0.00 0.00 0.00 46 1000.1
20260509054149 50 126 0.0 1.0 0.00 0.00 0.00 47 1000.1
20260509053648 49 122 0.0 0.0 0.00 0.00 0.00 47 999.8
20260509053144 48 130 0.0 0.0 0.00 0.00 0.00 50 999.8
20260509052642 47 122 0.0 0.0 0.00 0.00 0.00 53 999.8
20260509052139 49 129 0.0 1.0 0.00 0.00 0.00 49 1000.0
20260509051637 51 130 0.0 1.0 0.00 0.00 0.00 46 1000.4
20260509051134 51 126 0.0 1.0 0.00 0.00 0.00 44 1000.3
20260509050631 51 130 0.0 1.0 0.00 0.00 0.00 43 1000.1
20260509050127 52 130 0.0 0.0 0.00 0.00 0.00 43 1000.1
20260509045626 51 129 1.0 2.0 0.00 0.00 0.00 42 999.9
20260509045122 52 126 0.0 1.0 0.00 0.00 0.00 43 1000.0
20260509044619 52 121 0.0 0.0 0.00 0.00 0.00 43 1000.2
20260509044116 52 118 0.0 1.0 0.00 0.00 0.00 42 1000.1
20260509043613 52 126 1.0 1.0 0.00 0.00 0.00 43 1000.6
20260509043108 52 132 0.0 2.0 0.00 0.00 0.00 43 1000.6
20260509042605 52 138 0.0 1.0 0.00 0.00 0.00 42 1000.4
20260509042101 52 132 0.0 1.0 0.00 0.00 0.00 42 1000.4
20260509041558 52 130 0.0 1.0 0.00 0.00 0.00 43 1000.3
20260509041055 53 115 0.0 0.0 0.00 0.00 0.00 43 1000.4
20260509040554 53 124 0.0 1.0 0.00 0.00 0.00 44 1000.5
20260509040050 53 125 0.0 1.0 0.00 0.00 0.00 41 1000.7
20260509035547 53 102 0.0 1.0 0.00 0.00 0.00 46 1000.4
20260509035044 53 113 1.0 1.0 0.00 0.00 0.00 44 1000.6
20260509034542 54 105 1.0 2.0 0.00 0.00 0.00 44 1000.5
20260509034039 55 108 0.0 2.0 0.00 0.00 0.00 43 1000.4
20260509033536 55 116 0.0 0.0 0.00 0.00 0.00 41 1000.3
20260509033032 55 108 1.0 1.0 0.00 0.00 0.00 41 1000.1
20260509032530 56 120 0.0 2.0 0.00 0.00 0.00 41 1000.1
20260509032027 56 116 0.0 1.0 0.00 0.00 0.00 40 999.9
20260509031524 56 125 0.0 1.0 0.00 0.00 0.00 40 1000.0
20260509031022 56 113 0.0 1.0 0.00 0.00 0.00 40 1000.0
20260509030520 57 114 0.0 2.0 0.00 0.00 0.00 39 1000.2
20260509030016 57 125 0.0 2.0 0.00 0.00 0.00 38 1000.0
20260509025512 57 105 1.0 1.0 0.00 0.00 0.00 38 1000.0
20260509025008 58 152 3.0 5.0 0.00 0.00 0.00 38 999.8
20260509024504 58 79 1.0 3.0 0.00 0.00 0.00 40 999.9
20260509024001 59 63 2.0 2.0 0.00 0.00 0.00 39 999.8
20260509023458 58 46 3.0 8.0 0.00 0.00 0.00 38 999.7
20260509022954 58 70 2.0 2.0 0.00 0.00 0.00 41 999.8
20260509022451 59 23 3.0 5.0 0.00 0.00 0.00 38 999.6
20260509021949 59 120 0.0 1.0 0.00 0.00 0.00 40 999.5
20260509021446 59 97 1.0 2.0 0.00 0.00 0.00 39 999.4
20260509020943 60 103 1.0 5.0 0.00 0.00 0.00 37 999.2
20260509020441 60 80 2.0 6.0 0.00 0.00 0.00 35 999.0
20260509015938 60 100 1.0 2.0 0.00 0.00 0.00 35 999.1
20260509015437 61 110 0.0 3.0 0.00 0.00 0.00 34 998.9
20260509014933 62 128 0.0 3.0 0.00 0.00 0.00 32 999.1
20260509014430 61 152 1.0 2.0 0.00 0.00 0.00 32 998.7
20260509013926 61 157 1.0 2.0 0.00 0.00 0.00 31 998.9
20260509013423 62 126 0.0 1.0 0.00 0.00 0.00 31 998.5
20260509012919 62 134 1.0 2.0 0.00 0.00 0.00 31 998.4
20260509012415 63 176 1.0 3.0 0.00 0.00 0.00 30 998.5
20260509011913 63 126 0.0 2.0 0.00 0.00 0.00 31 998.6
20260509011410 63 142 1.0 1.0 0.00 0.00 0.00 29 998.6
20260509010908 64 124 0.0 2.0 0.00 0.00 0.00 30 998.5
20260509010405 65 127 0.0 0.0 0.00 0.00 0.00 29 998.5
20260509005902 65 113 1.0 3.0 0.00 0.00 0.00 27 998.6
20260509005400 65 117 0.0 1.0 0.00 0.00 0.00 28 998.5
20260509004900 65 111 0.0 2.0 0.00 0.00 0.00 28 998.2
20260509004357 66 132 0.0 1.0 0.00 0.00 0.00 27 998.5
20260509003854 66 175 1.0 2.0 0.00 0.00 0.00 26 998.2
20260509003352 66 145 1.0 2.0 0.00 0.00 0.00 29 998.4
20260509002849 66 154 3.0 3.0 0.00 0.00 0.00 29 998.3
20260509002347 67 78 1.0 2.0 0.00 0.00 0.00 28 998.6
20260509001844 67 141 2.0 6.0 0.00 0.00 0.00 27 998.4
20260509001340 67 121 1.0 2.0 0.00 0.00 0.00 27 998.4
20260509000837 67 112 2.0 3.0 0.00 0.00 0.00 27 998.2
20260509000335 67 302 2.0 3.0 0.00 0.00 0.00 27 998.5
20260508235831 67 142 0.0 1.0 0.00 0.00 0.00 27 998.3
20260508235328 67 108 2.0 7.0 0.00 0.00 0.00 26 998.7
20260508234825 67 111 0.0 1.0 0.00 0.00 0.00 27 998.5
20260508234321 68 50 1.0 2.0 0.00 0.00 0.00 25 998.7
20260508233820 68 158 0.0 1.0 0.00 0.00 0.00 27 998.7
20260508233319 68 132 1.0 6.0 0.00 0.00 0.00 25 998.8
20260508232815 68 115 5.0 7.0 0.00 0.00 0.00 26 998.7
20260508232312 69 101 3.0 6.0 0.00 0.00 0.00 25 998.7
20260508231811 68 102 0.0 2.0 0.00 0.00 0.00 26 998.9
20260508231306 69 28 2.0 5.0 0.00 0.00 0.00 25 999.0
20260508230803 69 159 1.0 3.0 0.00 0.00 0.00 27 999.2
20260508230259 69 76 1.0 2.0 0.00 0.00 0.00 27 999.2
20260508225757 69 140 0.0 1.0 0.00 0.00 0.00 27 999.1
20260508225253 68 116 1.0 2.0 0.00 0.00 0.00 26 999.0
20260508224752 68 145 0.0 3.0 0.00 0.00 0.00 27 999.2
20260508224249 70 157 1.0 2.0 0.00 0.00 0.00 25 999.2
20260508223746 69 84 2.0 2.0 0.00 0.00 0.00 26 999.2
20260508223243 69 151 2.0 5.0 0.00 0.00 0.00 25 999.2
20260508222741 68 70 1.0 2.0 0.00 0.00 0.00 26 999.4
20260508222238 69 96 1.0 5.0 0.00 0.00 0.00 25 999.4
20260508221734 71 158 1.0 3.0 0.00 0.00 0.00 26 999.5
20260508221230 70 111 2.0 3.0 0.00 0.00 0.00 25 999.3
20260508220726 68 146 1.0 2.0 0.00 0.00 0.00 26 999.6
20260508220223 68 148 1.0 5.0 0.00 0.00 0.00 25 999.8
20260508215720 70 94 1.0 6.0 0.00 0.00 0.00 24 999.7
20260508215216 71 90 5.0 8.0 0.00 0.00 0.00 24 999.6
20260508214713 68 312 1.0 5.0 0.00 0.00 0.00 27 999.9
20260508214211 70 108 1.0 3.0 0.00 0.00 0.00 25 1000.0
20260508213707 70 29 5.0 7.0 0.00 0.00 0.00 24 1000.1
20260508213203 69 31 2.0 9.0 0.00 0.00 0.00 25 1000.0
20260508212700 69 170 2.0 5.0 0.00 0.00 0.00 26 1000.0
20260508212157 70 126 3.0 9.0 0.00 0.00 0.00 24 1000.1
20260508211652 70 334 5.0 8.0 0.00 0.00 0.00 23 1000.2
20260508211148 70 73 2.0 6.0 0.00 0.00 0.00 25 1000.1
20260508210645 71 60 3.0 8.0 0.00 0.00 0.00 24 1000.3
20260508210143 71 129 2.0 3.0 0.00 0.00 0.00 25 1000.6
20260508205640 71 115 1.0 2.0 0.00 0.00 0.00 25 1000.4
20260508205136 69 113 1.0 6.0 0.00 0.00 0.00 25 1000.4
20260508204632 69 307 3.0 9.0 0.00 0.00 0.00 26 1000.6
20260508204128 67 154 2.0 6.0 0.00 0.00 0.00 26 1000.6
20260508203625 70 193 3.0 3.0 0.00 0.00 0.00 24 1000.7
20260508203121 69 280 2.0 7.0 0.00 0.00 0.00 24 1000.6
20260508202617 69 136 3.0 9.0 0.00 0.00 0.00 25 1001.1
20260508202115 68 189 6.0 9.0 0.00 0.00 0.00 24 1001.1
20260508201611 68 248 4.0 10.0 0.00 0.00 0.00 25 1001.2
20260508201108 69 268 5.0 7.0 0.00 0.00 0.00 25 1001.1
20260508200605 67 203 5.0 8.0 0.00 0.00 0.00 26 1001.4
20260508200101 65 133 1.0 2.0 0.00 0.00 0.00 27 1001.4
20260508195557 66 277 6.0 7.0 0.00 0.00 0.00 26 1001.4
20260508195054 66 115 1.0 5.0 0.00 0.00 0.00 27 1001.4
20260508194550 66 147 1.0 5.0 0.00 0.00 0.00 27 1001.3
20260508194048 66 89 2.0 3.0 0.00 0.00 0.00 28 1001.7
20260508193544 68 117 2.0 5.0 0.00 0.00 0.00 27 1001.6
20260508193041 68 159 2.0 6.0 0.00 0.00 0.00 26 1001.7
20260508192538 69 185 5.0 7.0 0.00 0.00 0.00 26 1001.7
20260508192035 68 160 2.0 3.0 0.00 0.00 0.00 27 1001.5
20260508191532 67 315 6.0 7.0 0.00 0.00 0.00 27 1001.7
20260508191028 66 137 0.0 5.0 0.00 0.00 0.00 27 1001.6
20260508190526 68 46 4.0 7.0 0.00 0.00 0.00 26 1001.7
20260508190022 70 246 4.0 6.0 0.00 0.00 0.00 26 1001.8
20260508185519 68 287 4.0 5.0 0.00 0.00 0.00 26 1001.8
20260508185017 68 134 3.0 6.0 0.00 0.00 0.00 27 1002.0
20260508184514 66 125 3.0 6.0 0.00 0.00 0.00 28 1002.2
20260508184011 67 81 3.0 7.0 0.00 0.00 0.00 28 1001.9
20260508183507 68 50 1.0 5.0 0.00 0.00 0.00 26 1002.4
20260508183003 69 245 4.0 6.0 0.00 0.00 0.00 25 1002.2
20260508182500 68 259 1.0 6.0 0.00 0.00 0.00 29 1002.5
20260508181955 67 135 0.0 3.0 0.00 0.00 0.00 30 1002.4
20260508181452 66 130 1.0 3.0 0.00 0.00 0.00 28 1002.7
20260508180950 66 130 1.0 5.0 0.00 0.00 0.00 27 1002.7
20260508180446 66 138 1.0 3.0 0.00 0.00 0.00 30 1002.6
20260508175942 67 202 3.0 5.0 0.00 0.00 0.00 27 1002.7
20260508175438 67 159 4.0 6.0 0.00 0.00 0.00 28 1002.6
20260508174937 67 137 2.0 3.0 0.00 0.00 0.00 28 1002.8
20260508174434 66 86 1.0 3.0 0.00 0.00 0.00 29 1003.0
20260508173931 66 135 1.0 3.0 0.00 0.00 0.00 29 1003.1
20260508173428 65 98 1.0 5.0 0.00 0.00 0.00 30 1003.2
20260508172923 66 78 2.0 3.0 0.00 0.00 0.00 32 1003.2
20260508172421 65 155 2.0 6.0 0.00 0.00 0.00 31 1003.4
20260508171917 64 117 0.0 3.0 0.00 0.00 0.00 31 1003.5
20260508171414 64 118 2.0 5.0 0.00 0.00 0.00 31 1003.6
20260508170910 64 141 1.0 3.0 0.00 0.00 0.00 31 1003.6
20260508170408 64 148 2.0 3.0 0.00 0.00 0.00 32 1003.8
20260508165904 63 140 2.0 2.0 0.00 0.00 0.00 31 1003.9
20260508165403 63 170 2.0 3.0 0.00 0.00 0.00 32 1003.8
20260508164858 63 161 2.0 5.0 0.00 0.00 0.00 32 1003.8
20260508164355 63 170 2.0 5.0 0.00 0.00 0.00 34 1004.0
20260508163852 63 125 1.0 2.0 0.00 0.00 0.00 31 1003.8
20260508163350 62 168 2.0 3.0 0.00 0.00 0.00 33 1004.2
20260508162845 62 177 3.0 3.0 0.00 0.00 0.00 34 1004.1
20260508162343 62 128 1.0 5.0 0.00 0.00 0.00 33 1004.1
20260508161840 62 95 1.0 1.0 0.00 0.00 0.00 34 1004.0
20260508161337 62 162 1.0 2.0 0.00 0.00 0.00 35 1004.1
20260508160834 60 137 1.0 2.0 0.00 0.00 0.00 36 1004.2
20260508160333 59 138 1.0 1.0 0.00 0.00 0.00 36 1004.3
20260508155829 58 156 1.0 2.0 0.00 0.00 0.00 38 1004.3
20260508155326 58 136 0.0 2.0 0.00 0.00 0.00 36 1004.4
20260508154823 58 139 1.0 3.0 0.00 0.00 0.00 37 1004.6
20260508154321 57 154 0.0 5.0 0.00 0.00 0.00 38 1004.6
20260508153817 57 150 0.0 1.0 0.00 0.00 0.00 38 1004.6
20260508153314 57 137 1.0 2.0 0.00 0.00 0.00 37 1004.4
20260508152810 57 128 2.0 3.0 0.00 0.00 0.00 38 1004.6
20260508152307 57 159 3.0 3.0 0.00 0.00 0.00 37 1004.8
20260508151803 57 180 0.0 3.0 0.00 0.00 0.00 38 1004.8
20260508151300 57 150 1.0 2.0 0.00 0.00 0.00 38 1004.8
20260508150756 57 241 2.0 3.0 0.00 0.00 0.00 37 1005.2
20260508150253 57 139 1.0 2.0 0.00 0.00 0.00 40 1005.0
20260508145749 56 149 0.0 1.0 0.00 0.00 0.00 38 1004.8
20260508145246 56 227 1.0 2.0 0.00 0.00 0.00 39 1005.0
20260508144742 57 147 2.0 3.0 0.00 0.00 0.00 37 1005.0
20260508144241 57 141 0.0 5.0 0.00 0.00 0.00 38 1005.1
20260508143738 58 158 1.0 2.0 0.00 0.00 0.00 37 1005.0